Location: Bronschhofen
(47.4788°N, 9.0353°E)
Time: 19:44:54
(UTC+00:00)

Cosmos 2150 Rocket - Pass Details

Date: 20 May 2022
Orbit: 749 x 807 km, 74.0° (Epoch: 01 July)

Event Time Altitude Azimuth Distance (km) Brightness Sun altitude
Exits shadow 01:06:20 31° 178° (S) 1,323 4.7 -18.5°
Maximum altitude 01:08:45 63° 108° (ESE) 846 4.2 -18.3°
Drops below altitude 10° 01:13:52 10° 28° (NNE) 2,287 7.8 -17.9°
Sets 01:16:15 0° 25° (NNE) 3,212 9.0 -17.7°
